[Iaude] MPEC H79: 2024 HL1 [a=2.11,e=0.57,i=9.8,H=25.9]

mpec at cfa.harvard.edu mpec at cfa.harvard.edu
Sat Apr 27 18:04:13 EDT 2024


M.P.E.C. 2024-H79                                Issued 2024 April 27, 22:02 UT

     The Minor Planet Electronic Circulars contain information on unusual
         minor planets, routine data on comets and natural satellites,
         and occasional editorial announcements.  They are published
    on behalf of Division F of the International Astronomical Union by the
          Minor Planet Center, Smithsonian Astrophysical Observatory,
                          Cambridge, MA 02138, U.S.A.
			  
             Prepared using the Tamkin Foundation Computer Network

                              MPC at CFA.HARVARD.EDU
            URL https://www.minorplanetcenter.net/    ISSN 1523-6714

                                    2024 HL1                                    


Observations:
     K24H01L* C2024 04 26.51319417 25 47.806+23 41 28.86         15.32oVEH079T05
     K24H01L  C2024 04 26.51500317 25 34.200+23 37 51.89         15.36oVEH079T05
     K24H01L  C2024 04 26.52022617 24 55.478+23 27 32.80         15.34oVEH079T05
     K24H01L  C2024 04 26.54346217 22 13.126+22 43 49.51         15.36oVEH079T05
     K24H01L KC2024 04 26.83441 17 06 46.55 +16 45 30.8          16.6 VZEH079M38
     K24H01L KC2024 04 26.83719 17 06 40.29 +16 43 35.8          16.3 VZEH079M38
     K24H01L KB2024 04 26.85180 17 06 01.29 +16 46 00.4          15.9 rZEH079M44
     K24H01L KB2024 04 26.85288 17 05 58.52 +16 45 16.0          16.1 rZEH079M44
     K24H01L KB2024 04 26.85396 17 05 55.76 +16 44 31.3          16.0 rZEH079M44
     K24H01L KC2024 04 26.91445917 04 01.48 +15 54 42.6          16.6 GXEH079595
     K24H01L KC2024 04 26.91526217 03 59.86 +15 54 14.4          16.3 GXEH079595
     K24H01L KC2024 04 26.91606317 03 58.23 +15 53 46.6          16.7 GXEH079595
     K24H01L KC2024 04 26.91686317 03 56.59 +15 53 18.8          16.3 GXEH079595
     K24H01L KC2024 04 26.91766417 03 54.99 +15 52 51.7          16.5 GXEH079595
     K24H01L KC2024 04 26.92114017 03 48.49 +15 51 04.9          16.7 GVEH079L01
     K24H01L KC2024 04 26.92262517 03 45.52 +15 50 14.0          16.6 GVEH079L01
     K24H01L KC2024 04 26.92410617 03 42.55 +15 49 23.5          17.0 GVEH079L01
     K24H01L KC2024 04 26.92558617 03 39.58 +15 48 33.0          16.8 GVEH079L01
     K24H01L KC2024 04 26.92706917 03 36.61 +15 47 42.4          16.9 GVEH079L01
     K24H01L pC2024 04 26.92855117 03 33.68 +15 46 52.4          16.7 GVEH079L01
     K24H01L KC2024 04 26.93119917 03 28.36 +15 45 22.7          16.8 GVEH079L01
     K24H01L KB2024 04 26.97060417 02 25.83 +15 23 47.5          16.4 GXEH079958
     K24H01L KB2024 04 26.97419617 02 19.26 +15 21 57.0          16.9 GXEH079958
     K24H01L KB2024 04 26.97776017 02 12.72 +15 20 08.2          16.5 GXEH079958
     K24H01L KC2024 04 27.20196616 57 31.66 +13 45 13.0          16.8 GVEH079932
     K24H01L KC2024 04 27.20430416 57 28.72 +13 44 26.4          17.0 GVEH079932
     K24H01L KC2024 04 27.20668916 57 25.72 +13 43 39.1          17.0 GVEH079932
     K24H01L KC2024 04 27.20907316 57 22.72 +13 42 51.8          16.9 GVEH079932
     K24H01L KC2024 04 27.24798716 56 34.51 +13 30 21.6          17.0 GVEH079932
     K24H01L KC2024 04 27.25003616 56 32.06 +13 29 43.6          17.8 GVEH079932
     K24H01L KC2024 04 27.25208516 56 29.54 +13 29 04.9          16.8 GVEH079932
     K24H01L KC2024 04 27.25413416 56 27.06 +13 28 26.5          16.2 GVEH079932
     K24H01L  C2024 04 27.26453316 56 14.362+13 45 44.96         17.28oVEH079W68
     K24H01L  C2024 04 27.29014816 55 42.792+13 37 35.08         17.07oVEH079W68
     K24H01L  C2024 04 27.29195016 55 40.663+13 37 01.27         17.27oVEH079W68
     K24H01L  C2024 04 27.29511616 55 36.835+13 36 01.66         17.07oVEH079W68
     K24H01L KB2024 04 27.31580 16 55 50.43 +13 12 03.2          17.8 VZEH079V24
     K24H01L KB2024 04 27.32217 16 55 43.40 +13 10 17.7          16.3 VZEH079V24
     K24H01L KB2024 04 27.32853 16 55 36.34 +13 08 34.0          17.6 VZEH079V24
     K24H01L KB2024 04 27.52519716 53 43.099+12 17 51.00         17.7 GXEH079Q06
     K24H01L KB2024 04 27.53268216 53 37.852+12 16 23.47         17.7 GXEH079Q06
     K24H01L KB2024 04 27.54002816 53 32.632+12 14 57.73         17.8 GXEH079Q06
     K24H01L KB2024 04 27.56098016 53 17.537+12 10 57.93         17.6 GXEH079Q06
     K24H01L KB2024 04 27.56843616 53 12.123+12 09 33.67         17.7 GXEH079Q06
     K24H01L KB2024 04 27.57578216 53 06.709+12 08 11.36         17.7 GXEH079Q06
     K24H01L KC2024 04 27.58115216 53 03.17 +12 07 15.2          17.5 GVEH079900
     K24H01L KC2024 04 27.58829416 52 57.85 +12 05 56.1          17.3 GVEH079900
     K24H01L KC2024 04 27.59543516 52 52.58 +12 04 37.3          17.4 GVEH079900
     K24H01L KB2024 04 27.67532 16 52 17.06 +11 50 56.3          18.5 GVEH079O46
     K24H01L KB2024 04 27.69988 16 52 00.37 +11 46 57.6          19.3 GVEH079O46
     K24H01L KB2024 04 27.70433 16 51 57.30 +11 46 14.9          17.6 GVEH079O46
     K24H01L KB2024 04 27.70934 16 51 53.86 +11 45 26.7                VEH079O46
     K24H01L KB2024 04 27.86813216 50 47.628+11 16 38.21         17.7 GXEH079K74
     K24H01L KB2024 04 27.87196316 50 45.924+11 16 08.76         17.8 GXEH079K74
     K24H01L KB2024 04 27.87563416 50 44.261+11 15 40.32         17.9 GXEH079K74
     K24H01L KB2024 04 27.87978516 50 42.379+11 15 08.21         18.0 GXEH079K74
     K24H01L KB2024 04 27.88441416 50 40.258+11 14 32.96         17.6 GXEH079K74
     K24H01L KC2024 04 27.88885 16 50 36.35 +11 14 15.4          17.6 GXEH079G02
     K24H01L KB2024 04 27.88888516 50 38.210+11 13 58.98         18.0 GXEH079K74
     K24H01L KC2024 04 27.89118 16 50 35.22 +11 13 57.3          18.1 GXEH079G02
     K24H01L KC2024 04 27.89389 16 50 33.90 +11 13 36.8          17.7 GXEH079G02
     K24H01L KC2024 04 27.90190 16 50 35.59 +11 13 49.7          17.2 GVEH079C82
     K24H01L KC2024 04 27.90351 16 50 34.71 +11 13 37.4          17.9 GVEH079C82
     K24H01L KC2024 04 27.90587 16 50 33.61 +11 13 20.8          17.9 GVEH079C82
     K24H01L KC2024 04 27.90902 16 50 32.05 +11 12 56.6          17.7 GVEH079C82

Observer details:
595 Farra d'Isonzo.  Observers M. Ceschia, E. Pettarin.  Measurer E.
    Pettarin.  0.61-m f/4.5 reflector + CCD.
900 Moriyama.  Observer Y. Ikari.  0.26-m f/7.0 reflector + CMO.
932 John J. McCarthy Obs., New Milford.  Observer M. Robson.  0.43-m f/6.8
    Reflector + CCD.
958 Observatoire de Dax.  Observer P. Dupouy.  0.50-m f/4.5 Reflector + CMO.
C82 Osservatorio Astronomico Nastro Verde, Sorrento.  Observer N. Ruocco.
    0.35-m f/6.3  Schmidt-Cassegrain + CCD.
G02 KYSUCE Observatory, Kysucke Nove Mesto.  Observer M. Urbanik.  0.40-m
    f/6.8 Corrected Dall-Kirkham + CCD.
K74 Muensterschwarzach Observatory, Schwarzach.  Observer C. Gerhard.  0.30-m
    f/3.75 reflector + CMO.
L01 Visnjan Observatory, Tican.  Observer K. Korlevic.  1.0-m f/2.9 reflector
    + CCD.
M38 Harsona Observatory, Nyiregyhaza.  Observer T. Elek.  0.20-m f/3 reflector
    + CCD.
M44 Al-Khatim Observatory, Abu Dhabi.  Observer M. Odeh.  0.36-m f/7.7 SC +
    CMO.
O46 Daocheng Glacier Observatory.  Observer Z. Wang.  0.25-m f/8 reflector +
    CMO.
Q06 Tarui Observatory, Tarui.  Observer H. Watanabe.  0.35-m f/1.9 Schmidt-
    Cassegrain + CMO.
T05 ATLAS-HKO, Haleakala.  Observers L. Denneau, R. Siverd, J. Tonry, H.
    Weiland.  Measurers L. Denneau, N. Erasmus, A. Fitzsimmons, J. Robinson,
    R. Siverd, J. Tonry, H. Weiland.  0.5-m Reflector + CCD.
V24 Sonoran Desert Skies Observatory, Pearce.  Observer A. Helms.  0.32-m
    f/6.7 reflector + CMO.
W68 ATLAS Chile, Rio Hurtado.  Observers L. Denneau, R. Siverd, J. Tonry, H.
    Weiland.  Measurers L. Denneau, N. Erasmus, A. Fitzsimmons, J. Robinson,
    R. Siverd, J. Tonry, H. Weiland.  0.5-m Reflector + CCD.

Orbital elements:
2024 HL1                                                 Earth MOID = 0.0012 AU
Epoch 2024 Mar. 31.0 TT = JDT 2460400.5                 Veres                   
M   1.53830              (2000.0)            P               Q                  
n   0.32113024     Peri.  319.62529     -0.99110810     -0.08797670             
a   2.1119416      Node   215.70426     +0.11166754     -0.95790471             
e   0.5654218      Incl.    9.84877     -0.07235390     -0.27327399             
P   3.07           H   25.93          G   0.15           U   6                  
Residuals in seconds of arc
240426 T05  0.2+  0.2+    240426 958  0.3+  0.1+    240427 Q06  0.1-  0.2+
240426 T05  0.1+  0.1+    240426 958  0.1-  0.3+    240427 900  0.1+  0.4+
240426 T05  0.1-  0.2-    240427 932  0.4-  0.1+    240427 900  0.5-  0.3+
240426 T05  0.1-  0.2-    240427 932  0.3-  0.1+    240427 900  0.1+  0.0
240426 M38  1.1-  1.1-    240427 932  0.3-  0.2+    240427 O46  0.1+  0.2+
240426 M38  0.4-  0.5-    240427 932  0.3-  0.1+    240427 O46  0.1-  0.2+
240426 M44  0.4-  0.2-    240427 932  0.7-  0.5-    240427 O46  0.3-  0.3+
240426 M44  0.2-  0.1-    240427 932  0.1-  0.1-    240427 O46  0.1-  0.0
240426 M44  0.1+  0.4-    240427 932  0.6-  0.4-    240427 K74  0.4-  0.3+
240426 595  0.2-  0.2+    240427 932  0.6-  0.6-    240427 K74  0.2-  0.5+
240426 595  0.1-  0.0     240427 W68  0.2+  0.4+    240427 K74  0.3-  0.4+
240426 595  0.3-  0.0     240427 W68  0.5-  0.1-    240427 K74  0.3-  0.2+
240426 595  0.7-  0.0     240427 W68  0.2+  0.0     240427 K74  0.4-  0.4+
240426 595  0.4-  0.6+    240427 W68  0.0   0.2-    240427 G02  0.4-  0.7+
240426 L01  0.6-  0.2+    240427 V24  0.9+  1.8+    240427 K74  0.3-  0.5+
240426 L01  0.4-  0.3+    240427 V24  2.3+  2.0+    240427 G02  0.3-  0.4+
240426 L01  0.3-  0.5+    240427 V24 (2.8+  3.1+)   240427 G02  0.3-  0.6+
240426 L01  0.4-  0.5+    240427 Q06  0.0   0.1+    240427 C82  0.2-  0.6-
240426 L01  0.4-  0.3+    240427 Q06  0.2+  0.3+    240427 C82 (1.3-  0.8-)
240426 L01  0.0   0.6+    240427 Q06  0.0   0.0     240427 C82  0.0   0.3+
240426 L01  0.6-  0.3+    240427 Q06  0.2-  0.3+    240427 C82  0.4+  0.3-
240426 958  0.0   0.1+    240427 Q06  0.2+  0.2+

Ephemeris:
2024 HL1                 a,e,i = 2.11, 0.57, 10                  q = 0.9178
Date    TT    R. A. (2000) Decl.     Delta      r    Elong.  Phase     V
2024 03 28    04 28 42.9 -07 23 35   0.2002  0.9181    61.1   107.9    26.3
...
2024 04 12    04 38 33.7 -07 50 38   0.09717 0.9451    51.6   123.8    25.9
...
2024 04 20    04 39 30.0 -07 22 33   0.04185 0.9759    45.7   132.5    24.9
...
2024 04 26    01 46 17.9 +45 07 15   0.0011941.0052    32.2   147.8    19.4
2024 04 27    17 00 49.4 +15 21 13   0.0065141.0107   130.3    49.4    16.9
2024 04 28    16 49 31.9 +11 07 33   0.01335 1.0163   135.6    43.9    18.3
...
2024 05 04    16 40 50.5 +07 58 17   0.05465 1.0523   142.6    35.5    21.2
...
2024 05 12    16 37 21.7 +07 01 43   0.1107  1.1054   147.8    29.1    22.6
...
2024 05 27    16 32 08.2 +05 06 12   0.2228  1.2164   153.3    22.0    24.2

M. P. C. Staff               (C) Copyright 2024 MPC           M.P.E.C. 2024-H79





More information about the Iaude mailing list